Location: Newark
(47.4417°N, 1.1394°W)
Time: 11:08:14
(UTC+00:00)

Envisat - Pass Details

Date: 23 November 2019
Orbit: 764 x 766 km, 98.1° (Epoch: 16 December)

Event Time Altitude Azimuth Distance (km) Brightness Sun altitude
Rises 18:07:12 0° 171° (S) 3,220 6.3 -17.6°
Reaches altitude 10° 18:09:30 10° 173° (S) 2,298 5.5 -17.9°
Maximum altitude 18:14:34 71° 257° (WSW) 813 3.3 -18.8°
Drops below altitude 10° 18:19:40 10° 342° (NNW) 2,314 5.6 -19.6°
Sets 18:21:59 0° 345° (NNW) 3,244 6.3 -20.0°
